Date String (YYYY-MM-DD hh:mm:ss) UTC,Instrument flags,absolute air pressure of the measurement (hPa),sample flow rate (lpm),inlet stack bypass flow (lpm),air temperature of the measurement (°C),ambient temperature measured by the external sensor (°C),aerosol sample conditioner tube jacket temperature (°C),OPC LED temperature (°C),internal box temperature (°C),relative humidity of the measurement (%),span deviation,mass concentration of particles derived from Lorenz-Mie calculation of OPC scattering (μg/m³),mass concentration of particles derived from Lorenz-Mie calculation of OPC scattering (μg/m³),mass concentration of particles derived from Lorenz-Mie calculation of OPC scattering (μg/m³)
DateTimeUTC,F1_M11,P_M11,Q1_M11,Q2_M11,T1_M11,T2_M11,T3_M11,T4_M11,T5_M11,U1_M11,ZSPAN_M11,X2_M11,X0_M11,X1_M11
2024-06-11 18:00:00,SystemResetWarning,0831.3,4.98,000.00,029.3,027.3,000.0,037.6,030.5,034.8,0000.0,0007.28,0017.84,0006.01
2024-06-11 18:01:00,SystemResetWarning,0831.3,5.01,000.00,028.9,025.9,000.0,037.6,029.7,035.6,0000.0,0007.27,0018.11,0006.01
2024-06-11 18:02:00,SystemResetWarning,0831.3,5.01,000.00,028.7,025.9,000.0,037.6,029.7,036.2,0000.0,0007.28,0018.17,0006.03
2024-06-11 18:03:00,SystemResetWarning,0831.2,5.00,000.00,028.7,026.3,000.0,037.5,029.8,036.0,0000.0,0007.30,0017.79,0006.04
2024-06-11 18:04:00,SystemResetWarning,0831.3,5.00,000.00,028.7,026.7,000.0,037.4,030.1,035.7,0000.0,0007.31,0017.16,0006.06
2024-06-11 18:05:00,SystemResetWarning,0831.3,4.99,000.00,028.8,027.1,000.0,037.3,030.4,035.6,0000.0,0007.26,0019.22,0006.06
2024-06-11 18:06:00,SystemResetWarning,0831.3,5.01,000.00,028.8,027.5,000.0,037.3,030.5,035.2,0000.0,0007.21,0018.77,0006.05
2024-06-11 18:07:00,SystemResetWarning,0831.3,5.00,000.00,028.9,027.8,000.0,037.3,030.7,035.2,0000.0,0007.22,0019.07,0006.05
2024-06-11 18:08:00,SystemResetWarning,0831.3,4.99,000.00,029.0,028.1,000.0,037.3,030.8,035.1,0000.0,0007.24,0018.30,0006.06
2024-06-11 18:09:00,SystemResetWarning,0831.3,5.00,000.00,029.0,028.3,000.0,037.3,030.9,035.5,0000.0,0007.23,0018.21,0006.05
2024-06-11 18:10:00,SystemResetWarning,0831.3,5.00,000.00,029.1,028.5,000.0,037.3,031.0,035.1,0000.0,0007.26,0018.79,0006.06
2024-06-11 18:11:00,SystemResetWarning,0831.3,4.99,000.00,029.2,028.6,000.0,037.4,031.1,034.7,0000.0,0007.16,0018.35,0006.06
2024-06-11 18:12:00,SystemResetWarning,0831.3,5.00,000.00,029.3,028.8,000.0,037.4,031.2,034.7,0000.0,0007.15,0018.49,0006.06
2024-06-11 18:13:00,SystemResetWarning,0831.3,5.01,000.00,029.3,028.9,000.0,037.4,031.2,034.6,0000.0,0007.18,0018.40,0006.05
2024-06-11 18:14:00,SystemResetWarning,0831.3,5.01,000.00,029.4,029.0,000.0,037.5,031.3,034.9,0000.0,0007.15,0018.44,0006.04
2024-06-11 18:15:00,SystemResetWarning,0831.2,4.98,000.00,029.4,028.2,000.0,037.6,030.9,035.1,0000.0,0007.11,0018.09,0006.01
2024-06-11 18:16:00,SystemResetWarning,0831.1,5.01,000.00,029.1,026.4,000.0,037.6,030.0,036.2,0000.0,0007.13,0017.15,0005.98
2024-06-11 18:17:00,SystemResetWarning,0831.2,5.01,000.00,028.8,025.9,000.0,037.6,029.7,036.1,0000.0,0007.18,0017.09,0005.98
2024-06-11 18:18:00,SystemResetWarning,0831.1,5.00,000.00,028.7,026.2,000.0,037.5,029.8,036.3,0000.0,0007.26,0017.98,0006.00
2024-06-11 18:19:00,SystemResetWarning,0831.2,5.00,000.00,028.7,026.6,000.0,037.4,030.0,036.7,0000.0,0007.24,0017.88,0006.00
2024-06-11 18:20:00,SystemResetWarning,0831.1,5.00,000.00,028.7,027.0,000.0,037.3,030.3,036.4,0000.0,0007.25,0018.20,0006.00
2024-06-11 18:21:00,SystemResetWarning,0831.1,5.00,000.00,028.8,027.4,000.0,037.3,030.4,036.4,0000.0,0007.22,0017.69,0006.00
2024-06-11 18:22:00,SystemResetWarning,0831.2,5.00,000.00,028.8,027.7,000.0,037.3,030.6,036.8,0000.0,0007.22,0018.21,0005.99
2024-06-11 18:23:00,SystemResetWarning,0831.2,4.99,000.00,028.9,028.0,000.0,037.3,030.7,036.4,0000.0,0007.24,0018.62,0005.99
2024-06-11 18:24:00,SystemResetWarning,0831.2,5.01,000.00,029.0,028.2,000.0,037.3,030.8,036.7,0000.0,0007.19,0019.36,0006.00
2024-06-11 18:25:00,SystemResetWarning,0831.2,5.00,000.00,029.1,028.4,000.0,037.3,030.9,037.2,0000.0,0007.22,0020.37,0005.99
2024-06-11 18:26:00,SystemResetWarning,0831.2,5.00,000.00,029.1,028.6,000.0,037.3,031.0,036.4,0000.0,0007.29,0020.99,0006.02
2024-06-11 18:27:00,SystemResetWarning,0831.1,4.99,000.00,029.2,028.7,000.0,037.3,031.1,036.0,0000.0,0007.24,0020.31,0006.04
2024-06-11 18:28:00,SystemResetWarning,0831.2,4.99,000.00,029.3,028.8,000.0,037.4,031.2,035.9,0000.0,0007.24,0020.34,0006.04
2024-06-11 18:29:00,SystemResetWarning,0831.2,5.00,000.00,029.4,029.0,000.0,037.4,031.3,035.3,0000.0,0007.20,0019.28,0006.04
2024-06-11 18:30:00,SystemResetWarning,0831.2,5.00,000.00,029.4,028.8,000.0,037.5,031.2,035.0,0000.0,0007.22,0018.76,0006.05
2024-06-11 18:31:00,SystemResetWarning,0831.1,5.00,000.00,029.2,027.0,000.0,037.5,030.4,035.6,0000.0,0007.24,0018.67,0006.05
2024-06-11 18:32:00,SystemResetWarning,0831.0,5.01,000.00,028.9,025.8,000.0,037.6,029.7,036.4,0000.0,0007.23,0020.47,0006.06
2024-06-11 18:33:00,SystemResetWarning,0831.0,5.01,000.00,028.7,025.9,000.0,037.5,029.6,037.3,0000.0,0007.27,0020.74,0006.07
2024-06-11 18:34:00,SystemResetWarning,0831.1,4.99,000.00,028.6,026.3,000.0,037.4,029.9,037.6,0000.0,0007.28,0020.62,0006.08
2024-06-11 18:35:00,SystemResetWarning,0831.0,4.99,000.00,028.6,026.7,000.0,037.3,030.1,037.0,0000.0,0007.32,0020.72,0006.09
2024-06-11 18:36:00,SystemResetWarning,0830.9,5.00,000.00,028.7,027.1,000.0,037.2,030.3,037.5,0000.0,0007.33,0020.12,0006.09
2024-06-11 18:37:00,SystemResetWarning,0830.9,5.01,000.00,028.8,027.5,000.0,037.2,030.5,038.3,0000.0,0007.30,0020.38,0006.09
2024-06-11 18:38:00,SystemResetWarning,0831.0,5.00,000.00,028.8,027.8,000.0,037.2,030.6,037.8,0000.0,0007.29,0021.19,0006.08
2024-06-11 18:39:00,SystemResetWarning,0831.0,4.99,000.00,028.9,028.1,000.0,037.2,030.8,036.9,0000.0,0007.26,0020.51,0006.08
2024-06-11 18:40:00,SystemResetWarning,0831.0,4.99,000.00,029.0,028.3,000.0,037.3,030.9,036.4,0000.0,0007.22,0020.66,0006.10
2024-06-11 18:41:00,SystemResetWarning,0831.0,5.00,000.00,029.1,028.5,000.0,037.3,031.0,036.7,0000.0,0007.20,0020.98,0006.10
2024-06-11 18:42:00,SystemResetWarning,0831.0,5.01,000.00,029.1,028.6,000.0,037.3,031.0,036.5,0000.0,0007.17,0022.30,0006.10
2024-06-11 18:43:00,SystemResetWarning,0831.0,5.00,000.00,029.2,028.8,000.0,037.3,031.1,036.7,0000.0,0007.19,0022.07,0006.10
2024-06-11 18:44:00,SystemResetWarning,0830.9,5.01,000.00,029.3,028.9,000.0,037.4,031.2,036.5,0000.0,0007.18,0022.66,0006.10
2024-06-11 18:45:00,SystemResetWarning,0830.9,5.00,000.00,029.4,029.0,000.0,037.4,031.3,036.0,0000.0,0007.18,0022.58,0006.09
2024-06-11 18:46:00,SystemResetWarning,0830.9,4.98,000.00,029.3,028.0,000.0,037.5,030.8,035.9,0000.0,0007.16,0021.87,0006.10
2024-06-11 18:47:00,SystemResetWarning,0830.9,5.01,000.00,029.0,026.2,000.0,037.5,029.9,036.3,0000.0,0007.16,0021.64,0006.11
2024-06-11 18:48:00,SystemResetWarning,0830.9,5.01,000.00,028.7,025.7,000.0,037.5,029.6,036.9,0000.0,0007.17,0020.95,0006.13
2024-06-11 18:49:00,SystemResetWarning,0830.9,5.01,000.00,028.6,026.1,000.0,037.4,029.7,037.5,0000.0,0007.24,0020.56,0006.15
2024-06-11 18:50:00,SystemResetWarning,0830.8,4.99,000.00,028.6,026.5,000.0,037.3,030.0,037.4,0000.0,0007.28,0021.13,0006.15
2024-06-11 18:51:00,SystemResetWarning,0830.9,5.01,000.00,028.7,026.9,000.0,037.3,030.2,036.6,0000.0,0007.28,0020.74,0006.15
2024-06-11 18:52:00,SystemResetWarning,0830.9,5.00,000.00,028.7,027.3,000.0,037.2,030.4,036.8,0000.0,0007.31,0021.07,0006.15
2024-06-11 18:53:00,SystemResetWarning,0830.9,5.00,000.00,028.8,027.6,000.0,037.2,030.5,036.6,0000.0,0007.33,0019.42,0006.16
2024-06-11 18:54:00,SystemResetWarning,0830.9,5.00,000.00,028.9,027.9,000.0,037.2,030.7,037.2,0000.0,0007.28,0017.99,0006.15
2024-06-11 18:55:00,SystemResetWarning,0830.9,5.01,000.00,028.9,028.2,000.0,037.2,030.8,036.4,0000.0,0007.27,0016.27,0006.15
2024-06-11 18:56:00,SystemResetWarning,0830.9,4.99,000.00,029.0,028.4,000.0,037.3,030.9,035.9,0000.0,0007.28,0016.10,0006.15
2024-06-11 18:57:00,SystemResetWarning,0830.8,4.99,000.00,029.1,028.5,000.0,037.3,031.0,036.3,0000.0,0007.29,0016.20,0006.14
2024-06-11 18:58:00,SystemResetWarning,0830.8,4.99,000.00,029.2,028.7,000.0,037.3,031.1,036.0,0000.0,0007.27,0016.50,0006.13
2024-06-11 18:59:00,SystemResetWarning,0830.9,4.99,000.00,029.2,028.8,000.0,037.4,031.2,037.0,0000.0,0007.27,0016.85,0006.12
